{"data":{"norad_id":66508,"intl_designator":"2025-263Z","name":"STARLINK-35608","alt_names":[],"object_type":"PAYLOAD","status":"ACTIVE","operator":null,"country":"US","launch_date":"2025-11-15","launch_site_code":"AFETR","launch_vehicle":null,"mission":null,"orbit_class":"UNKNOWN","rcs_meters":null,"size_class":null,"mass_kg":null,"dimensions":null,"purposes":["comms"],"wikipedia_slug":null,"has_3d_model":false,"image_url":null,"decayed_at":null,"tle_current":{"epoch":"2026-05-25T02:22:17.106240Z","epoch_age_seconds":63344,"freshness":"FRESH","line1":"1 66508U 25263Z   26145.09880910  .00033749  00000+0  12289-2 0  9995","line2":"2 66508  43.0020 279.2701 0002152 270.9662  89.0943 15.27616332 30581","mean_motion":15.27616332,"eccentricity":0.0002152,"inclination_deg":43.002,"raan_deg":279.2701,"arg_perigee_deg":270.9662,"mean_anomaly_deg":89.0943,"bstar":0.0012289,"rev_number":3058,"period_min":94.264506724323,"perigee_km":481.46380328099,"apogee_km":484.41681095397,"semimajor_km":6861.0773071175,"source":"CELESTRAK","updated_at":"2026-05-25T13:38:21.247389Z"}}}